EN

Hourly Weather Krasnyy Osetrik

Today, 30 September, Wednesday

Time Temperature Precipitation Wind Pressure Humidity
00:00 +13°C° 0 mm 5 mps 749 mmHg 40%
01:00 +12°C° 0 mm 5 mps 749 mmHg 41%
02:00 +12°C° 0 mm 5 mps 749 mmHg 42%
03:00 +12°C° 0 mm 5 mps 749 mmHg 43%
04:00 +12°C° 0 mm 5 mps 749 mmHg 45%
05:00 +10°C° 0 mm 5 mps 749 mmHg 48%
06:00 +10°C° 0 mm 5 mps 749 mmHg 51%
07:00 +12°C° 0 mm 5 mps 749 mmHg 51%
08:00 +13°C° 0 mm 6 mps 749 mmHg 51%
09:00 +12°C° 0 mm 7 mps 749 mmHg 51%
10:00 +15°C° 0 mm 7 mps 749 mmHg 46%
11:00 +16°C° 0 mm 7 mps 749 mmHg 42%
12:00 +18°C° 0 mm 8 mps 749 mmHg 37%
13:00 +18°C° 0 mm 8 mps 749 mmHg 36%
14:00 +18°C° 0 mm 7 mps 749 mmHg 36%
15:00 +20°C° 0 mm 7 mps 749 mmHg 36%
16:00 +19°C° 0 mm 6 mps 749 mmHg 39%
17:00 +16°C° 0 mm 6 mps 748 mmHg 43%
18:00 +15°C° 0 mm 5 mps 748 mmHg 46%
19:00 +15°C° 0 mm 5 mps 749 mmHg 47%
20:00 +14°C° 0 mm 5 mps 749 mmHg 47%
21:00 +14°C° 0 mm 5 mps 749 mmHg 48%
22:00 +14°C° 0 mm 5 mps 749 mmHg 49%
23:00 +13°C° 0 mm 5 mps 749 mmHg 50%

Tomorrow, 1 October, Thursday

Time Temperature Precipitation Wind Pressure Humidity
00:00 +13°C° 0 mm 5 mps 749 mmHg 51%
01:00 +13°C° 0 mm 5 mps 749 mmHg 51%
02:00 +13°C° 0 mm 5 mps 749 mmHg 52%
03:00 +12°C° 0 mm 5 mps 750 mmHg 52%
04:00 +12°C° 0 mm 5 mps 750 mmHg 54%
05:00 +10°C° 0 mm 5 mps 750 mmHg 55%
06:00 +10°C° 0 mm 5 mps 750 mmHg 57%
07:00 +12°C° 0 mm 5 mps 750 mmHg 54%
08:00 +13°C° 0 mm 6 mps 750 mmHg 51%
09:00 +14°C° 0 mm 7 mps 750 mmHg 47%
10:00 +15°C° 0 mm 7 mps 750 mmHg 42%
11:00 +16°C° 0 mm 7 mps 750 mmHg 37%
12:00 +17°C° 0 mm 7 mps 750 mmHg 32%
13:00 +18°C° 0 mm 7 mps 750 mmHg 32%
14:00 +18°C° 0 mm 7 mps 750 mmHg 31%
15:00 +19°C° 0 mm 6 mps 750 mmHg 31%
16:00 +17°C° 0 mm 6 mps 750 mmHg 36%
17:00 +16°C° 0 mm 5 mps 750 mmHg 41%
18:00 +15°C° 0 mm 4 mps 750 mmHg 45%
19:00 +15°C° 0 mm 4 mps 750 mmHg 45%
20:00 +14°C° 0 mm 5 mps 750 mmHg 45%
21:00 +14°C° 0 mm 5 mps 750 mmHg 45%
22:00 +14°C° 0 mm 5 mps 750 mmHg 45%
23:00 +13°C° 0 mm 5 mps 750 mmHg 45%

Day after tomorrow, 2 October, Friday

Time Temperature Precipitation Wind Pressure Humidity
00:00 +13°C° 0 mm 5 mps 750 mmHg 45%
01:00 +12°C° 0 mm 5 mps 750 mmHg 46%
02:00 +12°C° 0 mm 5 mps 750 mmHg 47%
03:00 +12°C° 0 mm 4 mps 751 mmHg 48%
04:00 +11°C° 0 mm 4 mps 751 mmHg 50%
05:00 +11°C° 0 mm 4 mps 751 mmHg 52%
06:00 +11°C° 0 mm 4 mps 751 mmHg 54%
07:00 +10°C° 0 mm 5 mps 751 mmHg 55%
08:00 +12°C° 0 mm 5 mps 751 mmHg 56%
09:00 +13°C° 0 mm 5 mps 751 mmHg 58%
10:00 +14°C° 0 mm 6 mps 751 mmHg 54%
11:00 +16°C° 0 mm 6 mps 751 mmHg 51%
12:00 +17°C° 0 mm 6 mps 751 mmHg 48%
13:00 +19°C° 0 mm 6 mps 751 mmHg 48%
14:00 +19°C° 0 mm 6 mps 751 mmHg 48%
15:00 +19°C° 0 mm 6 mps 751 mmHg 47%
16:00 +17°C° 0 mm 5 mps 751 mmHg 51%
17:00 +17°C° 0 mm 4 mps 751 mmHg 54%
18:00 +15°C° 0 mm 4 mps 750 mmHg 57%
19:00 +15°C° 0 mm 4 mps 751 mmHg 58%
20:00 +14°C° 0 mm 4 mps 751 mmHg 59%
21:00 +14°C° 0 mm 4 mps 751 mmHg 59%
22:00 +13°C° 0 mm 4 mps 751 mmHg 59%
23:00 +13°C° 0 mm 4 mps 751 mmHg 59%

3 October, Saturday

Time Temperature Precipitation Wind Pressure Humidity
00:00 +13°C° 0 mm 4 mps 751 mmHg 58%
01:00 +13°C° 0 mm 4 mps 751 mmHg 59%
02:00 +12°C° 0 mm 4 mps 751 mmHg 59%
03:00 +12°C° 0 mm 4 mps 751 mmHg 59%
04:00 +12°C° 0 mm 4 mps 751 mmHg 59%
05:00 +11°C° 0 mm 4 mps 751 mmHg 59%
06:00 +11°C° 0 mm 4 mps 751 mmHg 59%
07:00 +12°C° 0 mm 5 mps 751 mmHg 58%
08:00 +12°C° 0 mm 5 mps 751 mmHg 57%
09:00 +13°C° 0 mm 5 mps 751 mmHg 55%
10:00 +14°C° 0 mm 5 mps 751 mmHg 53%
11:00 +15°C° 0 mm 5 mps 751 mmHg 50%
12:00 +16°C° 0 mm 5 mps 752 mmHg 47%
13:00 +17°C° 0 mm 5 mps 751 mmHg 45%
14:00 +17°C° 0 mm 5 mps 751 mmHg 43%
15:00 +19°C° 0 mm 5 mps 751 mmHg 42%
16:00 +18°C° 0 mm 4 mps 751 mmHg 44%
17:00 +17°C° 0 mm 4 mps 751 mmHg 46%
18:00 +16°C° 0 mm 3 mps 751 mmHg 49%
19:00 +15°C° 0 mm 4 mps 751 mmHg 49%
20:00 +15°C° 0 mm 4 mps 751 mmHg 49%
21:00 +15°C° 0 mm 4 mps 751 mmHg 49%
22:00 +14°C° 0 mm 4 mps 751 mmHg 50%
23:00 +14°C° 0 mm 4 mps 751 mmHg 50%

4 October, Sunday

Time Temperature Precipitation Wind Pressure Humidity
00:00 +14°C° 0 mm 4 mps 751 mmHg 50%
01:00 +13°C° 0 mm 4 mps 751 mmHg 52%
02:00 +13°C° 0 mm 3 mps 751 mmHg 54%
03:00 +12°C° 0 mm 3 mps 751 mmHg 55%
04:00 +12°C° 0 mm 3 mps 751 mmHg 56%
05:00 +12°C° 0 mm 2 mps 752 mmHg 57%
06:00 +12°C° 0 mm 2 mps 752 mmHg 58%
07:00 +13°C° 0 mm 2 mps 752 mmHg 56%
08:00 +12°C° 0 mm 3 mps 752 mmHg 53%
09:00 +13°C° 0 mm 3 mps 752 mmHg 51%
10:00 +15°C° 0 mm 4 mps 752 mmHg 47%
11:00 +17°C° 0 mm 4 mps 752 mmHg 42%
12:00 +18°C° 0 mm 4 mps 753 mmHg 38%
13:00 +19°C° 0 mm 4 mps 753 mmHg 37%
14:00 +19°C° 0 mm 4 mps 752 mmHg 35%
15:00 +19°C° 0 mm 4 mps 752 mmHg 34%
16:00 +18°C° 0 mm 4 mps 752 mmHg 39%
17:00 +17°C° 0 mm 3 mps 752 mmHg 43%
18:00 +14°C° 0 mm 3 mps 752 mmHg 47%
19:00 +14°C° 0 mm 3 mps 752 mmHg 49%
20:00 +13°C° 0 mm 3 mps 752 mmHg 50%
21:00 +13°C° 0 mm 3 mps 752 mmHg 51%
22:00 +12°C° 0 mm 3 mps 752 mmHg 52%
23:00 +12°C° 0 mm 3 mps 753 mmHg 52%

5 October, Monday

Time Temperature Precipitation Wind Pressure Humidity
00:00 +12°C° 0 mm 3 mps 753 mmHg 53%
01:00 +11°C° 0 mm 4 mps 753 mmHg 52%
02:00 +11°C° 0 mm 4 mps 752 mmHg 50%
03:00 +11°C° 0 mm 4 mps 752 mmHg 49%
04:00 +11°C° 0 mm 4 mps 752 mmHg 48%
05:00 +12°C° 0 mm 4 mps 753 mmHg 46%
06:00 +12°C° 0 mm 4 mps 753 mmHg 44%
07:00 +12°C° 0 mm 4 mps 753 mmHg 42%
08:00 +13°C° 0 mm 4 mps 753 mmHg 40%
09:00 +13°C° 0 mm 4 mps 753 mmHg 38%
10:00 +14°C° 0 mm 4 mps 753 mmHg 38%
11:00 +14°C° 0 mm 4 mps 753 mmHg 38%
12:00 +15°C° 0 mm 5 mps 753 mmHg 38%
13:00 +16°C° 0 mm 5 mps 752 mmHg 37%
14:00 +16°C° 0 mm 6 mps 752 mmHg 37%
15:00 +17°C° 0 mm 6 mps 752 mmHg 36%
16:00 +16°C° 0 mm 5 mps 752 mmHg 38%
17:00 +15°C° 0 mm 4 mps 751 mmHg 41%
18:00 +14°C° 0 mm 3 mps 751 mmHg 43%
19:00 +14°C° 0.4 mm 3 mps 751 mmHg 46%
20:00 +14°C° 0.4 mm 4 mps 751 mmHg 49%
21:00 +13°C° 0.4 mm 5 mps 751 mmHg 52%
22:00 +13°C° 0 mm 5 mps 751 mmHg 49%
23:00 +14°C° 0 mm 6 mps 751 mmHg 46%
Show more

We Need Your Consent

Meteoprog and our Service Providers may store and access personal data such as cookies, device identifiers or other similar technologies on your device and process such data to personalise content and ads, as well as provide social media features and to analyse the traffic.

  • Store and/or access information on your device

    Cookies, device identifiers or other information can be stored or accessed on your device for the purposes indicated above.

  • Personalised ads and content, ad and content measurement, audience insights, and products development

    Ads and content can be personalised based on a profile. More data can be added to better personalise ads and content. Ad and content performance can be measured. Insights about the audience who saw the ads and content can be derived. Such data can be used to develop or improve user’s experience, systems and software.

By clicking ‘I Agree’ you will allow the use of indicated cookies, device identifiers, web beacons or other similar technologies. Your settings can be changed in the browser on your device.

For certain purposes, legitimate interests may be relied on, rather than consent. You can read more about this in our Privacy and Cookie Policy.